Regional Weather Roundup
Issued by NWS

Home | Current Version | Previous Version | Graphics & Text | Print | Product List | Glossary On
Versions: 1 2 3 4 5 6 7 8 9 10 11 12 13 14 15 16 17 18 19 20 21 22 23 24 25 26 27 28 29 30 31 32 33 34 35 36 37 38 39 40 41 42 43 44 45 46 47 48 49 50
000
ASUS43 KMPX 291310
RWRMN
WEATHER ROUNDUP FOR MINNESOTA
NATIONAL WEATHER SERVICE TWIN CITIES/CHANHASSEN MN
800 AM CDT MON MAY 29 2017


NOTE: "FAIR" INDICATES FEW OR NO CLOUDS BELOW 12,000 FEET WITH NO
SIGNIFICANT WEATHER AND/OR OBSTRUCTIONS TO VISIBILITY. N/A MEANS
CURRENT SKY AND/OR WEATHER CONDITIONS ARE NOT AVAILABLE.

MNZ060>063-068>070-291400-
   Twin Cities Metro

CITY           SKY/WX    TMP DP  RH WIND       PRES   REMARKS
TWIN CITIES    CLOUDY    56  47  71 W13G21    29.78R
ST PAUL        CLOUDY    56  47  71 NW12      29.78R
CRYSTAL        CLOUDY    55  44  66 W16G22    29.77R
BLAINE         CLOUDY    55  48  76 W14       29.76S
LAKEVILLE      CLOUDY    54  46  76 W10G16    29.79R
EDEN PRAIRIE   PTSUNNY   58  46  64 W12G24    29.77S
SOUTH ST PAUL  CLOUDY    56  45  66 NW13G20   29.77S
LAKE ELMO      CLOUDY    54  48  82 W9        29.78R
$$
MNZ001>005-007-008-013>017-022>024-027-028-291400-
   Northwest Minnesota

CITY           SKY/WX    TMP DP  RH WIND       PRES   REMARKS
BEMIDJI        CLOUDY    47  45  92 NW14G20   29.76R
HALLOCK        CLOUDY    46  45  93 N15       29.83R
ROSEAU         CLOUDY    46  43  87 NW14      29.78R
WARROAD        CLOUDY    46  45  93 NW13G18   29.76R
THIEF RVR FALL CLOUDY    49  44  83 NW17G25   29.80F
CROOKSTON      RAIN      48  48 100 N23G29    29.83S
FOSSTON        LGT RAIN  45  45 100 NW10G16   29.80S
DETROIT LAKES  LGT RAIN  46  46 100 NW15G23   29.83R
MOORHEAD       LGT RAIN  50  48  93 NW12      29.85S
PARK RAPIDS    CLOUDY    50  45  83 NW16      29.76S
MAHNOMEN       CLOUDY    47  46  96 NW10      29.81S FOG
$$
MNZ006-009>011-018-025>026-291400-
   North Central Minnesota

CITY           SKY/WX    TMP DP  RH WIND       PRES   REMARKS
BAUDETTE       CLOUDY    48  47  96 NW14      29.72R
FLAG ISLAND    CLOUDY    46  45  93 NW22      29.72S
INTL FALLS     RAIN      49  47  93 NW10      29.67R FOG
WASKISH        CLOUDY    48  46  93 NW12      29.73S
BIG FORK       LGT RAIN  48  46  93 NW6       29.70S
LONGVILLE      CLOUDY    50  46  87 NW6       29.74R
GRAND RAPIDS   CLOUDY    49  45  86 NW10G20   29.73R
CRANE LAKE     CLOUDY    48  48 100 W3        29.65S FOG
ORR            DRIZZLE   50  46  87 NW10      29.64R
COOK           DRIZZLE   48  48 100 W13       29.66S
WALKER         CLOUDY    47  46  94 NW9       29.75S FOG
$$
MNZ012-019>021-037-291400-
   Northeast Minnesota

CITY           SKY/WX    TMP DP  RH WIND       PRES   REMARKS
DULUTH         CLOUDY    52  47  83 NW16      29.65S
ELY            RAIN      50  48  93 W10       29.61S
HIBBING        LGT RAIN  48  47  96 W9        29.67S
EVELETH        CLOUDY    50  46  87 W9G16     29.67S
DULUTH HARBOR  CLOUDY    55  50  82 W14       29.66S
TWO HARBORS    CLOUDY    55  50  82 NW7       29.61F
SILVER BAY     CLOUDY    55  50  82 NW8       29.60R
GRAND MARAIS     N/A     42  42 100 W3        29.57R
G MARAIS ARPRT CLOUDY    52  46  82 NW3       29.58R
$$
MNZ029>031-032-039>041-046>048-054>057-064-291400-
   West Central Minnesota

CITY           SKY/WX    TMP DP  RH WIND       PRES   REMARKS
FERGUS FALLS   CLOUDY    50  50 100 N17G25    29.83S
WHEATON        CLOUDY    52  48  87 NW13      29.88S
MORRIS         CLOUDY    54  48  82 NW18G25   29.84S
ALEXANDRIA     CLOUDY    50  48  93 NW12G21   29.83R
ELBOW LAKE     LGT RAIN  50  49  97 W17       29.84S
WADENA         CLOUDY    50  45  81 NW17      29.79S
GLENWOOD       PTSUNNY   52  48  87 NW21G26   29.82S
APPLETON       CLOUDY    55  46  71 NW15G22   29.85S
BENSON         CLOUDY    54  48  82 N14       29.86S
ORTONVILLE     CLOUDY    55  46  71 NW17G25   29.86S
MADISON        PTSUNNY   57  48  72 NW13      29.87R
WILLMAR        PTSUNNY   54  48  82 NW16      29.85R
$$
MNZ033>034-036-042>043-049>051-058-059-291400-
   Central Minnesota

CITY           SKY/WX    TMP DP  RH WIND       PRES   REMARKS
ST CLOUD       CLOUDY    53  48  83 W10       29.77S
SAUK CENTRE    CLOUDY    51  47  86 NW14G20   29.80S
PAYNESVILLE    CLOUDY    53  51  94 W14G21    29.81S
AITKIN         CLOUDY    52  46  82 W10       29.72S
PINE RIVER     CLOUDY    50  46  87 NW13      29.78S
BRAINERD       LGT RAIN  50  49  96 NW12      29.75S FOG
STAPLES        CLOUDY    48  46  93 W9        29.78S
LONG PRAIRIE   CLOUDY    50  46  87 W15G22    29.80S
LITTLE FALLS   CLOUDY    52  45  76 W10G16    29.77S
LITCHFIELD     CLOUDY    55  50  82 NW14G22   29.81S
BUFFALO        CLOUDY    55  46  73 W16G25    29.79S
MAPLE LAKE     CLOUDY    55  49  81 W12G18    29.80R
HUTCHINSON     CLOUDY    56  49  76 W13G20    29.82S
$$
MNZ037-044-045-052-053-291400-
   East Central Minnesota

CITY           SKY/WX    TMP DP  RH WIND       PRES   REMARKS
PRINCETON      CLOUDY    55  48  76 W12G18    29.76S
MORA           CLOUDY    52  46  82 NW9       29.75S
CAMBRIDGE      CLOUDY    55  46  71 W8        29.73S
RUSH CITY      CLOUDY    53  48  82 W8        29.74S
MOOSE LAKE     CLOUDY    52  46  82 NW12      29.69S
HINCKLEY       CLOUDY    54  48  82 W9        29.72S
CLOQUET        CLOUDY    52  45  76 W13G20    29.68S
MCGREGOR       CLOUDY    50  46  87 NW9G16    29.72S
$$
MNZ071>073-080-081-089-090-097-098-291400-
   Southwest Minnesota

CITY           SKY/WX    TMP DP  RH WIND       PRES   REMARKS
MONTEVIDEO     CLOUDY    55  46  71 N12G17    29.86R
CANBY          PTSUNNY   54  47  77 NW13G18   29.89S
MARSHALL       CLOUDY    54  46  74 W14       29.88R
REDWOOD FALLS  CLOUDY    54  46  74 W12       29.85S
OLIVIA         CLOUDY    54  48  82 NW16G24   29.84R HAZE
PIPESTONE      SUNNY     52  43  71 NW12      29.91S
WINDOM         SUNNY     55  46  71 W13       29.88S
WORTHINGTON    SUNNY     53  46  77 W18       29.91R
JACKSON        SUNNY     54  45  71 NW8G17    29.90R
TRACY          PTSUNNY   54  47  76 W7G16     29.89R
SLAYTON        PTSUNNY   50  46  85 W15       29.91S
$$
MNZ065>067-074>077-082>085-091>093-291400-
   South Central Minnesota

CITY           SKY/WX    TMP DP  RH WIND       PRES   REMARKS
MANKATO        CLOUDY    55  46  71 W13       29.84R
NEW ULM        CLOUDY    55  45  67 W16G22    29.85R
ST JAMES       MOSUNNY   57  46  67 W13       29.88R
FAIRMONT       MOSUNNY   57  46  66 W13       29.88S
GLENCOE        CLOUDY    55  50  83 W15G25    29.80S
FARIBAULT      PTSUNNY   55  46  71 W12       29.82R
OWATONNA       PTSUNNY   55  45  67 W14       29.83R
WASECA         CLOUDY    54  45  71 W15       29.85R
ALBERT LEA     CLOUDY    57  46  67 W9        29.86S
$$
MNZ078>079-086>088-094>096-291400-
   Southeast Minnesota

CITY           SKY/WX    TMP DP  RH WIND       PRES   REMARKS
ROCHESTER      MOSUNNY   53  46  77 W20       29.83R
RED WING       RAIN      55  46  71 NW9       29.78R
STANTON        CLOUDY    55  47  75 W13       29.79R
DODGE CENTER   PTSUNNY   54  45  71 W10G18    29.83R
WINONA         CLOUDY    55  46  71 W9        29.80R
AUSTIN         MOSUNNY   55  45  67 W14G20    29.84S
PRESTON        CLOUDY    54  45  72 W14G21    29.83F
$$
ABBREVIATIONS USED IN REMARKS
   TC - TEMPERATURES IN CELSIUS
  WCI - WIND CHILL INDEX
   HX - HEAT INDEX
  VSB - VISIBILITY
$$




USA.gov is the U.S. government's official web portal to all federal, state and local government web resources and services.